Weather in Russkaya Polyana

Russia / Omsk Oblast     53°46′43″N   73°52′42″E
temp.,
°C
wind,
m/s
gust,
m/s
humid.,
%
clouds,
%
prec.,
mm/h
press.,
hPa
HPBL,
m
26 september, sun
sun2600:00+7nne576277 0.0 1021694
03:00+3nne48825 0.0 1022368
06:00+1ne49785 0.0 1023300
09:00+2ne46715 0.0 1025408
12:00+6ne55460 0.0 1025893
15:00+8ne44370 0.0 10251241
18:00+7ene45425 0.0 10251164
21:00+4e485614 0.0 1026248
27 september, mon
mon2700:00+2e49665 0.0 1025275
03:00+1e49785 0.0 1025226
06:000ene410825 0.0 1025234
09:00+3e6106012 0.0 1024973
12:00+7e8104756 0.0 10231427
15:00+8e8941100 0.0 10221541
18:00+7e71046100 0.0 10221343
21:00+5e81366100 0.0 1022770
28 september, tue
tue2800:00+5e71264100 0.0 1022833
03:00+5ene71161100 0.0 1021819
06:00+4e61164100 0.0 1022858
09:00+5e71065100 0.0 10211008
12:00+7e81052100 0.0 10191193
15:00+9e91142100 0.0 10171445
18:00+8e81244100 0.0 10141449
21:00+6ene71151100 0.0 10141119
29 september, wed
wed2900:00+4ene71172100 1.3 1013908
03:00+4ne71176100 0.6 1011754
06:00+3ne71386100 2.1 1012781
09:00+3nne71279100 0.2 1013685
12:00+7nne6856100 0.3 10141119
15:00+9nne564476 0.0 10161562
18:00+7nne464879 0.0 1017476
21:00+5n345998 0.0 101878
30 september, thu
thu3000:00+4n3469100 0.0 101973
03:00+3n337897 0.0 101964
06:00+2n33905 0.0 102057
09:00+3n34815 0.0 1020230
12:00+7n336265 0.0 10201010
15:00+7nnw3353100 0.1 10191147
18:00+6nnw3457100 0.1 1019930
21:00+5nw3465100 0.0 1020756